Regional Weather Roundup
Issued by NWS

Home | Current Version | Previous Version | Graphics & Text | Print | Product List | Glossary On
Versions: 1 2 3 4 5 6 7 8 9 10 11 12 13 14 15 16 17 18 19 20 21 22 23 24 25 26 27 28 29 30 31 32 33 34 35 36 37 38 39 40 41 42 43 44 45 46 47 48 49 50
848
ASUS45 KSLC 181610
RWRUT

UTAH REGIONAL WEATHER ROUNDUP
NATIONAL WEATHER SERVICE SALT LAKE CITY UT
900 AM MST THU JAN 18 2018

UTZ001>011-023>025-181700-

NORTHERN UTAH

CITY           SKY/WX    TMP DP  RH WIND       PRES   REMARKS
BRIGHAM CITY   SUNNY     30  27  90 CALM      30.21F
DUGWAY         PTSUNNY   29  27  94 E3        30.20F
HILL AFB       SUNNY     37  24  60 E18       30.20F WCI  26
LOGAN          PTCLDY    31  26  82 CALM      30.19F HAZE
OGDEN          SUNNY     36  26  67 S7        30.20S WCI  30
SALT LAKE CITY PTSUNNY   40  28  62 S12       30.20F WCI  33
TOOELE VALLEY  MOSUNNY   36  30  80 SE9       30.20S WCI  29
WENDOVER       CLOUDY    27  22  81 CALM      30.21S
HEBER CITY       N/A     27  23  86 CALM      30.27S
WEST JORDAN    MOSUNNY   38  28  69 S15       30.21F WCI  29

$$

UTZ011>015-024>027-181700-

CENTRAL/NORTHEAST UTAH

CITY           SKY/WX    TMP DP  RH WIND       PRES   REMARKS
PROVO AIRPORT  PTSUNNY   30  28  92 W5        30.27F WCI  25
MOAB/CANYONLAN   N/A    N/A N/A N/A MISG      30.34R
DELTA          PTSUNNY   30  28  93 S6        30.24F WCI  24
PRICE          CLOUDY    32  24  72 CALM      30.32R
RICHFIELD      SUNNY     28  28 100 CALM      30.31S
ROOSEVELT      CLOUDY    23  18  80 CALM      30.37R
VERNAL         CLOUDY    23  15  71 CALM      30.35R

$$

UTZ013>016-019>022-027-181700-

SOUTHERN UTAH

CITY           SKY/WX    TMP DP  RH WIND       PRES   REMARKS
BRYCE CANYON   MOSUNNY   25  20  81 SW5       30.34R WCI  19
CEDAR CITY     MOSUNNY   33  29  85 CALM      30.26F
MILFORD        MOSUNNY   30  27  88 S6        30.26S WCI  24
ST GEORGE      PTSUNNY   38  33  82 NW3       30.30R
HANKSVILLE     PTSUNNY   21  12  68 CALM      30.39R
KANAB          SUNNY     36  25  64 NE2       30.36R
BLANDING         N/A     31  19  60 E5        30.41R WCI  26

$$

REGIONAL REPORTS     COLORADO/ARIZONA

CITY           SKY/WX    TMP DP  RH WIND       PRES   REMARKS
CRAIG, CO      CLOUDY    17  12  80 S3        30.34R
GRAND JUNCTION PTSUNNY   26  18  71 SE3       30.35F
RIFLE, CO      PTSUNNY   21  16  81 CALM      30.38R
MONTROSE, CO   MOSUNNY   25  14  63 CALM      30.39R
CORTEZ, CO     PTSUNNY   24  18  77 CALM      30.35R
COLORADO CITY    N/A     36  30  80 SE5       30.34R WCI  32
PAGE, AZ       PTSUNNY   36  23  59 W3        30.33R
GRAND CANYON   SUNNY     30  24  78 NE5       30.32R WCI  25
KINGMAN, AZ    MOSUNNY   52  28  39 CALM      30.25R
FLAGSTAFF, AZ  SUNNY     28  21  75 CALM      30.31R

$$

REGIONAL REPORTS    NEVADA/IDAHO/WYOMING

CITY           SKY/WX    TMP DP  RH WIND       PRES   REMARKS
LAS VEGAS, NV  MOSUNNY   52  39  61 S3        30.22R
ELY, NY        CLOUDY    29  24  82 VRB3      30.22F
ELKO, NV       CLOUDY    30  27  88 CALM      30.12S
POCATELLO, ID  MOCLDY    33  30  88 N9        30.11F WCI  25
BURLEY, ID     CLOUDY    46  31  55 S24G33    30.03F
FORT BRIDGER,    N/A     34  16  47 W8        30.26S WCI  27
EVANSTON, WY   MOSUNNY   31  20  63 S8        30.23F WCI  23
ROCK SPRINGS,  CLOUDY    31  20  63 SW9       30.24S WCI  23

$$




USA.gov is the U.S. government's official web portal to all federal, state and local government web resources and services.